Regional Weather Roundup
Issued by NWS

Home | Current Version | Previous Version | Graphics & Text | Print | Product List | Glossary On
Versions: 1 2 3 4 5 6 7 8 9 10 11 12 13 14 15 16 17 18 19 20 21 22 23 24 25 26 27 28 29 30 31 32 33 34 35 36 37 38 39 40 41 42 43 44 45 46 47 48 49 50
000
ASUS43 KMPX 271910
RWRMN
WEATHER ROUNDUP FOR MINNESOTA
NATIONAL WEATHER SERVICE TWIN CITIES/CHANHASSEN MN
200 PM CDT SUN JUL 27 2014


NOTE: "FAIR" INDICATES FEW OR NO CLOUDS BELOW 12,000 FEET WITH NO
SIGNIFICANT WEATHER AND/OR OBSTRUCTIONS TO VISIBILITY. N/A MEANS
CURRENT SKY AND/OR WEATHER CONDITIONS ARE NOT AVAILABLE.

MNZ060>063-068>070-272000-
   Twin Cities Metro

CITY           SKY/WX    TMP DP  RH WIND       PRES   REMARKS
TWIN CITIES    MOSUNNY   76  56  49 NW16G25   29.92R
ST PAUL        PTSUNNY   75  59  57 NW17G26   29.91R
CRYSTAL        MOSUNNY   76  56  49 N14       29.91R
BLAINE         PTSUNNY   73  61  64 NW14G23   29.92R
LAKEVILLE      PTSUNNY   70  57  64 NW18G24   29.92S
EDEN PRAIRIE   PTSUNNY   73  57  57 NW16G31   29.92R
SOUTH ST PAUL  PTSUNNY   73  55  53 N15G22    29.91R
LAKE ELMO      PTSUNNY   73  59  60 N14       29.92R
$$
MNZ001>005-007-008-013>017-022>024-027-028-272000-
   Northwest Minnesota

CITY           SKY/WX    TMP DP  RH WIND       PRES   REMARKS
BEMIDJI        LGT RAIN  62  60  92 N8        30.05R
HALLOCK        MOSUNNY   66  57  72 N13       30.14R
ROSEAU         MOSUNNY   66  59  77 N12       30.11R
WARROAD        PTSUNNY   66  57  72 N15G22    30.12R
THIEF RVR FALL CLOUDY    64  55  72 N15       30.11S
CROOKSTON      CLOUDY    63  57  82 N15G21    30.13R
FOSSTON        CLOUDY    64  57  77 N15       30.09R
DETROIT LAKES  PTSUNNY   63  59  88 NW16      30.10R
MOORHEAD       CLOUDY    64  61  88 N14G20    30.13R
PARK RAPIDS    PTSUNNY   71  58  63 N18       30.03R
$$
MNZ006-009>011-018-025>026-272000-
   North Central Minnesota

CITY           SKY/WX    TMP DP  RH WIND       PRES   REMARKS
BAUDETTE       CLOUDY    64  54  69 N9        30.10R
FLAG ISLAND    PTSUNNY   66  52  59 N14       30.10R
INTL FALLS     CLOUDY    67  54  63 N13G23    30.05R
WASKISH        CLOUDY    64  59  82 NE7       30.06R
BIG FORK       MOSUNNY   64  57  77 N10G17    30.03S
LONGVILLE      PTSUNNY   70  57  64 N9G18     30.01R
GRAND RAPIDS   CLOUDY    64  55  72 N16G22    30.01R
CRANE LAKE     CLOUDY    63  55  77 N8        30.04R
ORR            CLOUDY    63  54  72 CALM      30.01R
COOK           CLOUDY    64  55  72 N9        30.02R
$$
MNZ012-019>021-037-272000-
   Northeast Minnesota

CITY           SKY/WX    TMP DP  RH WIND       PRES   REMARKS
DULUTH         CLOUDY    60  55  83 E15G23    29.97R
ELY            CLOUDY    61  54  77 N6        30.01R
HIBBING        CLOUDY    66  56  70 N14       30.00R
EVELETH        CLOUDY    63  57  82 N8G16     30.00R
DULUTH HARBOR  CLOUDY    55  54  94 NE13      29.98R
TWO HARBORS    CLOUDY    63  55  77 E10G18    29.95R
SILVER BAY     SUNNY     57  57 100 NE5       29.95R
GRAND MARAIS     N/A     69  54  58 NE12G17   29.93R
G MARAIS ARPRT   N/A     63  50  63 N10G22    29.97R
$$
MNZ029>031-032-039>041-046>048-054>057-064-272000-
   West Central Minnesota

CITY           SKY/WX    TMP DP  RH WIND       PRES   REMARKS
FERGUS FALLS   CLOUDY    66  55  68 NW18G26   30.09R
WHEATON        CLOUDY    64  55  72 NW16G22   30.12R
MORRIS         MOSUNNY   66  57  72 N18G24    30.08R
ALEXANDRIA     CLOUDY    70  57  63 NW21G30   30.06R
ELBOW LAKE     CLOUDY    65  58  79 N17G24    30.08R
WADENA         LGT RAIN  66  59  77 NW17G23   30.04R
GLENWOOD       MOSUNNY   72  59  64 NW20G33   30.05R
APPLETON       PTSUNNY   70  57  64 NW21G28   30.08R
BENSON         CLOUDY    70  57  64 N21G30    30.06R
ORTONVILLE     CLOUDY    66  55  68 NW18      30.10R
MADISON        SUNNY     70  59  68 NW20G28   30.09R
WILLMAR        FAIR      73  57  56 NW20G25   30.04R
$$
MNZ033>034-036-042>043-049>051-058-059-272000-
   Central Minnesota

CITY           SKY/WX    TMP DP  RH WIND       PRES   REMARKS
ST CLOUD       PTSUNNY   73  58  59 NW9G21    29.96R
SAUK CENTRE    CLOUDY    70  59  66 N22G29    30.02R
PAYNESVILLE    CLOUDY    70  57  63 W20G26    30.01R
AITKIN         LGT RAIN  70  61  73 N14G20    29.97R
PINE RIVER     MOSUNNY   72  57  60 N15G22    30.04R
BRAINERD       PTSUNNY   70  57  63 N17       29.99R
STAPLES        PTSUNNY   70  55  60 N14       30.02R
LONG PRAIRIE   LGT RAIN  63  61  94 W9G17     30.03R
LITTLE FALLS   MOSUNNY   72  55  56 NW9       29.98R
LITCHFIELD     PTSUNNY   73  61  64 NW18      29.99R
BUFFALO        PTSUNNY   76  58  52 NW17      29.96S
MAPLE LAKE     MOSUNNY   75  60  59 NW13G21   29.97S
$$
MNZ037-044-045-052-053-272000-
   East Central Minnesota

CITY           SKY/WX    TMP DP  RH WIND       PRES   REMARKS
PRINCETON      MOSUNNY   75  59  57 NW12      29.95R
MORA           MOSUNNY   72  55  56 N9G18     29.95R
CAMBRIDGE      MOSUNNY   75  59  57 NW13G20   29.92R
RUSH CITY      PTSUNNY   73  59  62 NW8G20    29.93R
MOOSE LAKE     CLOUDY    59  55  88 NE6G17    29.96R
HINCKLEY       CLOUDY    66  63  88 N10G16    29.94R
CLOQUET        RAIN      57  55  94 E9        29.98R
MCGREGOR       CLOUDY    64  59  82 N9G22     29.98R
$$
MNZ071>073-080-081-089-090-097-098-272000-
   Southwest Minnesota

CITY           SKY/WX    TMP DP  RH WIND       PRES   REMARKS
MONTEVIDEO     PTSUNNY   70  61  73 N17       30.07S
GRANITE FALLS  PTSUNNY   68  58  70 NW20G30   30.08R
CANBY          CLOUDY    70  56  61 NW21G29   30.11R
MARSHALL       CLOUDY    66  55  68 N20G25    30.07S
REDWOOD FALLS  MOSUNNY   73  58  59 NW17G28   30.02S
OLIVIA         PTSUNNY   72  59  64 NW22      30.01S
PIPESTONE      CLOUDY    68  55  64 NW18G25   30.12R
WINDOM         CLOUDY    66  57  72 NW15G26   30.06R
WORTHINGTON    CLOUDY    66  55  68 N22G29    30.11R
JACKSON        CLOUDY    66  55  68 NW16G25   30.07R
TRACY          CLOUDY    66  58  76 NW12G21   30.09R
SLAYTON        CLOUDY    66  56  68 NW20      30.11R
$$
MNZ065>067-074>077-082>085-091>093-272000-
   South Central Minnesota

CITY           SKY/WX    TMP DP  RH WIND       PRES   REMARKS
MANKATO        CLOUDY    70  57  64 NW20G25   29.97R
NEW ULM        MOSUNNY   73  61  64 NW22G37   29.99R
ST JAMES       PTSUNNY   70  57  64 W17G28    30.02R
FAIRMONT       PTSUNNY   72  55  56 NW21G30   30.02R
GLENCOE        CLOUDY    72  58  61 NW16G23   29.97R
FARIBAULT      PTSUNNY   75  55  50 W13       29.94R
OWATONNA       MOSUNNY   72  57  60 NW20G29   29.95R
WASECA         CLOUDY    68  55  64 NW10G16   29.97R
ALBERT LEA     PTSUNNY   68  59  73 NW10G24   29.96S
$$
MNZ078>079-086>088-094>096-272000-
   Southeast Minnesota

CITY           SKY/WX    TMP DP  RH WIND       PRES   REMARKS
ROCHESTER      CLOUDY    72  58  61 NW20G28   29.93R
RED WING       MOSUNNY   73  59  60 NW16G23   29.89R
STANTON        MOSUNNY   75  58  55 NW18G24   29.91R
DODGE CENTER   MOSUNNY   72  61  68 NW20      29.93R
WINONA         MOSUNNY   73  61  64 NW15G23   29.86R
AUSTIN         MOSUNNY   72  59  64 W16G30    29.94R
PRESTON        CLOUDY    68  60  76 NW20G25   29.91R
$$
ABBREVIATIONS USED IN REMARKS
   TC - TEMPERATURES IN CELSIUS
  WCI - WIND CHILL INDEX
   HX - HEAT INDEX
  VSB - VISIBILITY
$$



USA.gov is the U.S. government's official web portal to all federal, state and local government web resources and services.